User: anonymous   Login
Location: Noordwijk
(52.2400°N, 4.4500°E)
Time: 10:59:50
(UTC+00:00)
Language:

DELFI C3 - Orbit

View from above orbital plane
View from above orbital plane
View from above satellite
View from above satellite

Ground track
Ground track

The orbit data is extracted from the following two-line orbital elements,

1 32789U 08021G   22337.80962247  .00014604  00000-0  70900-3 0  9999
2 32789  97.3266 358.3508 0011258  92.0372 268.2152 15.18511674797587
Epoch (UTC): 03 December 2022 19:25:51
Eccentricity: 0.0011258
inclination: 97.3266°
perigee height: 502 km
apogee height: 518 km
right ascension of ascending node: 358.3508°
argument of perigee: 92.0372°
revolutions per day: 15.18511674
mean anomaly at epoch: 268.2152°
orbit number at epoch: 79758

The dashed part of the orbit path shows where the satellite is in the earth's shadow,  

DLR